Location: 81360 Arifat, France
(43.7204°N, 2.3408°E)
Time: 22:03:56
(UTC+01:00)

Explorer 11/Cluster Stage 4 - All Passes

Search period start: 10 December 2025 00:00
Search period end: 20 December 2025 00:00
Orbit: 463 x 1181 km, 28.8° (Epoch: 10 December)

Date Brightness Start Highest point End Pass type
(mag) Time Alt. Az. Time Alt. Az. Time Alt. Az.
10 Dec - 00:14:15 10° SW 00:16:04 12° SSW 00:17:47 10° S night (unlit)
10 Dec - 20:16:47 10° S 20:18:52 12° SSE 20:20:51 10° SE visible
10 Dec - 22:02:09 10° SW 22:05:46 16° S 22:09:01 10° SE visible
10 Dec - 23:50:04 10° SW 23:52:26 13° SSW 23:54:39 10° SSE night (unlit)
11 Dec - 19:52:15 10° S 19:55:05 13° SSE 19:57:46 10° SE visible
11 Dec - 21:37:57 10° SW 21:42:02 18° S 21:45:42 10° SE visible
11 Dec - 23:25:53 10° SW 23:28:47 14° SSW 23:31:25 10° SSE night (unlit)
12 Dec - 19:27:52 10° SSW 19:31:17 14° SSE 19:34:30 10° SE visible
12 Dec - 21:13:46 10° SW 21:18:17 19° S 21:22:20 10° SE visible
12 Dec - 23:01:43 10° SW 23:05:06 15° SSW 23:08:08 10° SSE night (unlit)
13 Dec - 19:03:34 10° SSW 19:07:26 15° SSE 19:11:06 10° SE visible
13 Dec - 20:49:35 10° SW 20:54:30 20° S 20:58:54 10° SE visible
13 Dec - 22:37:33 10° SW 22:41:22 17° SSW 22:44:47 10° SSE night (unlit)
14 Dec - 18:39:19 10° SSW 18:43:34 16° SSE 18:47:35 10° SE visible
14 Dec - 20:25:25 10° SW 20:30:41 22° S 20:35:24 10° SE visible
14 Dec - 22:13:23 10° SW 22:17:36 18° SSW 22:21:24 10° SSE visible
15 Dec - 18:15:08 10° SSW 18:19:40 17° SSE 18:24:00 10° SE visible
15 Dec - 20:01:16 10° SW 20:06:49 23° S 20:11:50 10° SE visible
15 Dec - 21:49:14 10° SW 21:53:48 19° SSW 21:57:56 10° SSE visible
16 Dec - 17:51:00 10° SSW 17:55:44 17° SSE 18:00:19 10° SE visible
16 Dec - 19:37:09 10° SW 19:42:55 24° S 19:48:13 10° SE visible
16 Dec - 21:25:04 10° WSW 21:29:59 20° SSW 21:34:25 10° SSE visible
17 Dec - 17:26:56 10° SSW 17:31:48 18° SSE 17:36:34 10° ESE daylight
17 Dec - 19:13:04 10° SW 19:18:59 24° S 19:24:32 10° SE visible
17 Dec - 21:00:56 10° WSW 21:06:07 21° SSW 21:10:50 10° SSE visible
18 Dec - 17:02:56 10° SSW 17:07:50 18° SSE 17:12:44 10° ESE daylight
18 Dec - 18:49:00 10° SW 18:55:02 25° S 19:00:48 10° SE visible
18 Dec - 20:36:49 10° WSW 20:42:13 21° SSW 20:47:12 10° SSE visible
18 Dec - 22:28:19 10° SSW 22:28:56 10° SSW 22:29:32 10° SSW visible
19 Dec - 16:38:59 10° SSW 16:43:52 18° SSE 16:48:51 10° ESE daylight
19 Dec - 18:25:00 10° SW 18:31:04 25° S 18:36:59 10° SE visible
19 Dec - 20:12:44 10° WSW 20:18:17 22° SSW 20:23:29 10° SE visible
19 Dec - 22:03:35 10° SW 22:05:04 11° SSW 22:06:31 10° SSW visible
